カタログに戻る

SCOUT G-1 DEB

運用中PO
NORAD 17164·DEBRIS·🇺🇸 United States

打ち上げ Aug 3, 1985 から Vandenberg Space Force Base

Loading…

次のパス (今後24時間)

TLE

最新Source: Space-Track

元期: Sep 14, 2026, 07:34 UTC

1 17164U 85066G   26257.31550844  .00000189  00000-0  32885-3 0  9993
2 17164  89.3942 207.9300 0200870 304.3483 211.9592 13.33308499998175

AllMySatでSCOUT G-1 DEBをリアルタイム追跡

Download on the App Store